FW2784 Weather Reports


Display with metric or nautical units.
time (UTC)temp
F
wind
direction
speed
MPH
gust
MPH
rain 1hr
in
rain 24hr
in
rain mn
in
humidity
%
barometer
mb
20260510224503 78 12 3.0 5.0 0.00 0.00 0.00 67 1017.0
20260510224003 79 32 3.0 5.0 0.00 0.00 0.00 66 1017.0
20260510223503 79 338 3.0 6.0 0.00 0.00 0.00 65 1017.0
20260510223003 80 9 4.0 8.0 0.00 0.00 0.00 64 1017.1
20260510222503 80 355 4.0 8.0 0.00 0.00 0.00 63 1017.0
20260510222003 80 37 2.0 8.0 0.00 0.00 0.00 64 1016.9
20260510221503 80 23 2.0 5.0 0.00 0.00 0.00 64 1017.0
20260510221003 80 319 2.0 5.0 0.00 0.00 0.00 63 1016.9
20260510220503 81 338 2.0 5.0 0.00 0.00 0.00 61 1016.9
20260510220004 82 46 3.0 5.0 0.00 0.00 0.00 62 1017.0
20260510215003 82 85 2.0 8.0 0.00 0.00 0.00 61 1016.9
20260510214503 82 14 3.0 8.0 0.00 0.00 0.00 61 1016.9
20260510213503 82 78 2.0 7.0 0.00 0.00 0.00 63 1017.0
20260510213004 82 115 2.0 6.0 0.00 0.00 0.00 62 1017.0
20260510212503 82 34 2.0 6.0 0.00 0.00 0.00 63 1017.0
20260510212003 82 355 2.0 6.0 0.00 0.00 0.00 61 1017.0
20260510211503 82 126 2.0 6.0 0.00 0.00 0.00 63 1017.1
20260510211003 81 26 2.0 6.0 0.00 0.00 0.00 64 1017.0
20260510210502 81 65 2.0 5.0 0.00 0.00 0.00 64 1017.0
20260510210004 80 350 3.0 6.0 0.00 0.00 0.00 64 1017.1
20260510205003 80 237 1.0 4.0 0.00 0.00 0.00 63 1017.1
20260510204004 80 5 2.0 4.0 0.00 0.00 0.00 67 1017.2
20260510203503 79 21 2.0 5.0 0.00 0.00 0.00 67 1017.2
20260510203004 79 355 3.0 5.0 0.00 0.00 0.00 65 1017.2
20260510202503 80 12 2.0 6.0 0.00 0.00 0.00 62 1017.3
20260510202004 81 50 2.0 6.0 0.00 0.00 0.00 66 1017.4
20260510201502 79 296 3.0 8.0 0.00 0.00 0.00 69 1017.3
20260510201003 80 340 3.0 8.0 0.00 0.00 0.00 67 1017.4
20260510200503 82 265 2.0 5.0 0.00 0.00 0.00 60 1017.4
20260510200004 81 19 2.0 5.0 0.00 0.00 0.00 65 1017.4
20260510195503 79 49 2.0 4.0 0.00 0.00 0.00 67 1017.4
20260510195003 77 207 2.0 5.0 0.00 0.00 0.00 69 1017.5
20260510194003 77 5 2.0 6.0 0.00 0.00 0.00 68 1017.6
20260510193504 77 355 2.0 6.0 0.00 0.00 0.00 68 1017.5
20260510193004 78 126 2.0 6.0 0.00 0.00 0.00 66 1017.6
20260510192504 77 19 2.0 6.0 0.00 0.00 0.00 70 1017.6
20260510192002 78 340 2.0 5.0 0.00 0.00 0.00 68 1017.6
20260510191504 78 298 2.0 7.0 0.00 0.00 0.00 70 1017.6
20260510190502 79 13 2.0 5.0 0.00 0.00 0.00 67 1017.6
20260510190006 80 339 3.0 6.0 0.00 0.00 0.00 66 1017.8
20260510185503 80 22 4.0 9.0 0.00 0.00 0.00 68 1017.9
20260510185003 79 74 3.0 9.0 0.00 0.00 0.00 69 1017.9
20260510184503 79 36 3.0 9.0 0.00 0.00 0.00 70 1017.9
20260510184003 79 31 2.0 6.0 0.00 0.00 0.00 71 1018.0
20260510183502 77 22 2.0 6.0 0.00 0.00 0.00 74 1017.9
20260510183003 77 38 3.0 6.0 0.00 0.00 0.00 70 1017.9
20260510181503 77 350 3.0 10.0 0.00 0.00 0.00 74 1018.0
20260510181006 75 44 2.0 6.0 0.00 0.00 0.00 75 1018.0
20260510180503 74 51 2.0 6.0 0.00 0.00 0.00 78 1018.1
20260510180005 74 240 2.0 4.0 0.00 0.00 0.00 76 1018.0
20260510175503 75 264 2.0 4.0 0.00 0.00 0.00 74 1018.0
20260510174003 75 34 3.0 7.0 0.00 0.00 0.00 76 1018.6
20260510173503 74 27 2.0 6.0 0.00 0.00 0.00 75 1018.7
20260510173002 74 20 3.0 6.0 0.00 0.00 0.00 78 1018.7
20260510172503 73 24 2.0 7.0 0.00 0.00 0.00 81 1018.8
20260510172003 72 65 2.0 5.0 0.00 0.00 0.00 79 1018.7
20260510171503 72 48 3.0 8.0 0.00 0.00 0.00 81 1018.8
20260510170504 72 35 2.0 4.0 0.00 0.00 0.00 81 1018.9
20260510170005 72 25 2.0 4.0 0.00 0.00 0.00 80 1019.0
20260510165504 72 51 2.0 4.0 0.00 0.00 0.00 81 1019.0
20260510165004 71 45 2.0 4.0 0.00 0.00 0.00 80 1019.0
20260510164503 71 33 2.0 4.0 0.00 0.00 0.00 81 1019.0
20260510164003 71 51 2.0 4.0 0.00 0.00 0.00 80 1019.0
20260510163503 72 89 3.0 5.0 0.00 0.00 0.00 81 1018.9
20260510163004 72 24 3.0 5.0 0.00 0.00 0.00 81 1018.7
20260510162503 72 5 2.0 5.0 0.00 0.00 0.00 82 1018.8
20260510162003 71 18 2.0 5.0 0.00 0.00 0.00 82 1018.8
20260510161503 71 37 3.0 5.0 0.00 0.00 0.00 84 1018.7
20260510161003 70 42 2.0 5.0 0.00 0.00 0.00 84 1018.7
20260510160503 70 17 2.0 5.0 0.00 0.00 0.00 83 1018.8
20260510160005 70 5 3.0 8.0 0.00 0.00 0.00 84 1018.8
20260510155503 70 28 3.0 8.0 0.00 0.00 0.00 84 1018.8
20260510155003 70 16 1.0 5.0 0.00 0.00 0.00 85 1018.7
20260510154503 69 103 1.0 3.0 0.00 0.00 0.00 83 1018.8
20260510154003 69 103 1.0 3.0 0.00 0.00 0.00 84 1018.8
20260510153503 69 103 1.0 3.0 0.00 0.00 0.00 84 1018.8
20260510153004 69 103 2.0 4.0 0.00 0.00 0.00 87 1018.8
20260510151503 67 97 1.0 3.0 0.00 0.00 0.00 91 1018.7
20260510151003 66 171 1.0 3.0 0.00 0.00 0.00 90 1018.7
20260510150503 66 265 1.0 3.0 0.00 0.00 0.00 90 1018.8
20260510145504 66 185 1.0 2.0 0.00 0.00 0.00 92 1018.8
20260510145003 66 316 1.0 3.0 0.00 0.00 0.00 92 1018.7
20260510144003 65 169 1.0 5.0 0.00 0.00 0.00 93 1018.7
20260510143502 65 169 2.0 5.0 0.00 0.00 0.00 93 1018.6
20260510143003 65 161 2.0 5.0 0.00 0.00 0.00 93 1018.6
20260510142503 65 215 1.0 4.0 0.00 0.00 0.00 94 1018.7
20260510142002 65 153 1.0 2.0 0.00 0.00 0.00 95 1018.7
20260510141002 64 213 2.0 6.0 0.00 0.00 0.00 94 1018.8
20260510140503 64 213 2.0 6.0 0.00 0.00 0.00 95 1018.8
20260510135503 64 203 1.0 2.0 0.00 0.00 0.00 95 1018.7
20260510135003 64 203 1.0 2.0 0.00 0.00 0.00 95 1018.7
20260510134503 64 203 1.0 2.0 0.00 0.00 0.00 95 1018.6
20260510134004 64 203 1.0 2.0 0.00 0.00 0.00 95 1018.7
20260510133003 64 31 0.0 1.0 0.00 0.00 0.00 95 1018.6
20260510132503 64 31 0.0 1.0 0.00 0.00 0.00 95 1018.4
20260510132004 64 31 0.0 1.0 0.00 0.00 0.00 95 1018.4
20260510131004 63 31 1.0 3.0 0.00 0.00 0.00 95 1018.2
20260510130503 63 31 1.0 2.0 0.00 0.00 0.00 96 1018.2
20260510130004 63 31 0.0 2.0 0.00 0.00 0.00 95 1018.3
20260510125003 63 31 1.0 4.0 0.00 0.00 0.00 95 1018.2
20260510124503 63 31 2.0 4.0 0.00 0.00 0.00 95 1018.2
20260510124004 63 41 2.0 4.0 0.00 0.00 0.00 95 1018.1
20260510123002 63 360 2.0 4.0 0.00 0.00 0.00 95 1018.1
20260510122503 63 360 1.0 4.0 0.00 0.00 0.00 95 1018.0
20260510122003 63 37 0.0 3.0 0.00 0.00 0.00 95 1017.9
20260510121503 63 229 0.0 1.0 0.00 0.00 0.00 95 1017.8
20260510121003 63 136 0.0 1.0 0.00 0.00 0.00 95 1017.8
20260510120004 63 226 0.0 1.0 0.00 0.00 0.00 95 1017.5
20260510115502 63 226 0.0 2.0 0.00 0.00 0.00 95 1017.5
20260510115003 63 226 0.0 2.0 0.00 0.00 0.00 95 1017.3
20260510114502 63 226 1.0 2.0 0.00 0.00 0.00 95 1017.2
20260510114003 63 225 1.0 2.0 0.00 0.00 0.00 95 1017.2
20260510113004 63 226 1.0 3.0 0.00 0.00 0.00 95 1016.8
20260510112503 63 226 1.0 4.0 0.00 0.00 0.00 95 1016.6
20260510112003 63 213 1.0 4.0 0.00 0.00 0.00 95 1016.6
20260510111503 63 184 1.0 3.0 0.00 0.00 0.00 95 1016.5
20260510111003 63 184 1.0 3.0 0.00 0.00 0.00 95 1016.4
20260510110503 63 224 1.0 4.0 0.00 0.00 0.00 95 1016.3
20260510105503 63 175 1.0 2.0 0.00 0.00 0.00 95 1016.2
20260510105003 63 175 1.0 3.0 0.00 0.00 0.00 95 1016.2
20260510104503 63 175 2.0 3.0 0.00 0.00 0.00 95 1016.1
20260510104004 63 223 2.0 4.0 0.00 0.00 0.00 95 1016.1
20260510103503 63 200 1.0 4.0 0.00 0.00 0.00 95 1016.0
20260510103003 63 202 1.0 2.0 0.00 0.00 0.00 94 1015.9
20260510102503 63 207 1.0 3.0 0.00 0.00 0.00 95 1015.9
20260510101503 62 207 1.0 2.0 0.00 0.00 0.00 95 1015.8
20260510101002 62 207 0.0 1.0 0.00 0.00 0.00 95 1015.8
20260510100503 62 207 0.0 2.0 0.00 0.00 0.00 95 1015.8
20260510100003 62 207 1.0 3.0 0.00 0.00 0.00 95 1015.7
20260510095002 62 207 1.0 3.0 0.00 0.00 0.00 95 1015.6
20260510094502 62 240 1.0 4.0 0.00 0.00 0.00 94 1015.5
20260510093501 62 46 1.0 3.0 0.00 0.00 0.00 95 1015.4
20260510093001 61 46 1.0 3.0 0.00 0.00 0.00 95 1015.3
20260510092501 61 46 0.0 2.0 0.00 0.00 0.00 94 1015.2
20260510092001 61 46 0.0 0.0 0.00 0.00 0.00 94 1015.2
20260510091501 61 46 0.0 1.0 0.00 0.00 0.00 94 1015.0
20260510091001 60 46 0.0 1.0 0.00 0.00 0.00 94 1014.9
20260510090501 60 46 0.0 1.0 0.00 0.00 0.00 94 1014.9
20260510090004 60 46 1.0 1.0 0.00 0.00 0.00 94 1014.9
20260510085502 60 46 0.0 1.0 0.00 0.00 0.00 94 1014.9
20260510085001 59 46 0.0 0.0 0.00 0.00 0.00 93 1014.9
20260510084501 59 46 0.0 0.0 0.00 0.00 0.00 93 1014.8
20260510084001 59 46 0.0 0.0 0.00 0.00 0.00 93 1014.6
20260510083501 60 46 0.0 0.0 0.00 0.00 0.00 92 1014.5
20260510083002 60 46 0.0 0.0 0.00 0.00 0.00 92 1014.6
20260510082503 60 46 0.0 0.0 0.00 0.00 0.00 92 1014.5
20260510082001 61 46 0.0 0.0 0.00 0.00 0.00 93 1014.6
20260510081501 61 46 0.0 0.0 0.00 0.00 0.00 92 1014.5
20260510081001 61 46 0.0 0.0 0.00 0.00 0.00 93 1014.5
20260510080004 62 46 0.0 0.0 0.00 0.00 0.00 93 1014.5
20260510075504 62 46 0.0 0.0 0.00 0.00 0.00 93 1014.5
20260510075003 63 46 0.0 1.0 0.00 0.00 0.00 93 1014.5
20260510074503 63 46 0.0 2.0 0.00 0.00 0.00 94 1014.6
20260510073502 63 46 0.0 2.0 0.00 0.00 0.00 94 1014.5
20260510073003 63 46 0.0 2.0 0.00 0.00 0.00 93 1014.5
20260510072003 63 46 0.0 1.0 0.00 0.00 0.00 93 1014.5
20260510071503 63 46 0.0 1.0 0.00 0.00 0.00 93 1014.5
20260510071003 63 46 0.0 1.0 0.00 0.00 0.00 93 1014.5
20260510070503 63 46 0.0 1.0 0.00 0.00 0.00 93 1014.6
20260510065503 62 46 0.0 1.0 0.00 0.00 0.00 93 1014.6
20260510065003 63 46 1.0 1.0 0.00 0.00 0.00 93 1014.6
20260510064503 62 46 1.0 2.0 0.00 0.00 0.00 94 1014.7
20260510064003 62 46 0.0 2.0 0.00 0.00 0.00 94 1014.9
20260510063503 61 46 1.0 2.0 0.00 0.00 0.00 93 1015.0
20260510063002 61 46 1.0 4.0 0.00 0.00 0.00 93 1015.0
20260510062503 60 90 0.0 3.0 0.00 0.00 0.00 92 1015.0
20260510062004 60 89 0.0 0.0 0.00 0.00 0.00 92 1015.0
20260510061003 60 90 0.0 0.0 0.00 0.00 0.00 92 1014.9
20260510060004 60 90 0.0 0.0 0.00 0.00 0.00 91 1014.9
20260510055503 60 90 0.0 0.0 0.00 0.00 0.00 91 1014.8
20260510055003 60 90 0.0 0.0 0.00 0.00 0.00 92 1014.9
20260510054503 61 90 0.0 0.0 0.00 0.00 0.00 92 1014.9
20260510054002 61 90 0.0 1.0 0.00 0.00 0.00 92 1014.9
20260510053503 61 90 0.0 1.0 0.00 0.00 0.00 92 1015.0
20260510053004 61 90 0.0 0.0 0.00 0.00 0.00 92 1015.2
20260510052503 61 90 0.0 0.0 0.00 0.00 0.00 91 1015.0
20260510052003 61 90 0.0 0.0 0.00 0.00 0.00 91 1015.0
20260510051503 61 90 0.0 0.0 0.00 0.00 0.00 91 1015.2
20260510051003 61 90 0.0 0.0 0.00 0.00 0.00 91 1015.2
20260510050503 61 90 0.0 0.0 0.00 0.00 0.00 91 1015.1
20260510050008 61 90 0.0 1.0 0.00 0.00 0.00 91 1015.1
20260510045504 61 90 0.0 1.0 0.00 0.00 0.00 91 1015.1
20260510045003 61 90 0.0 1.0 0.00 0.00 0.00 91 1015.2
20260510044503 61 90 0.0 1.0 0.00 0.00 0.00 91 1015.0
20260510044003 61 90 0.0 1.0 0.00 0.00 0.00 90 1015.0
20260510043503 61 90 0.0 0.0 0.00 0.00 0.00 90 1015.2
20260510043003 61 90 0.0 1.0 0.00 0.00 0.00 90 1015.3
20260510042503 62 90 0.0 1.0 0.00 0.00 0.00 90 1015.3
20260510042005 62 90 1.0 1.0 0.00 0.00 0.00 90 1015.2
20260510041503 62 90 1.0 1.0 0.00 0.00 0.00 90 1015.3
20260510041002 62 90 1.0 2.0 0.00 0.00 0.00 90 1015.3
20260510040504 62 90 0.0 2.0 0.00 0.00 0.00 90 1015.3
20260510040005 63 90 0.0 1.0 0.00 0.00 0.00 90 1015.4
20260510035505 63 90 0.0 1.0 0.00 0.00 0.00 90 1015.3
20260510035004 63 90 0.0 0.0 0.00 0.00 0.00 90 1015.4
20260510034504 63 90 0.0 1.0 0.00 0.00 0.00 90 1015.4
20260510033505 63 90 0.0 1.0 0.00 0.00 0.00 89 1015.4
20260510033004 63 90 1.0 2.0 0.00 0.00 0.00 89 1015.5
20260510032004 64 90 0.0 2.0 0.00 0.00 0.00 89 1015.5
20260510031504 64 90 0.0 1.0 0.00 0.00 0.00 89 1015.5
20260510031004 64 90 0.0 0.0 0.00 0.00 0.00 90 1015.3
20260510030504 65 90 0.0 0.0 0.00 0.00 0.00 89 1015.3
20260510030005 65 90 0.0 0.0 0.00 0.00 0.00 90 1015.3
20260510025504 65 90 0.0 1.0 0.00 0.00 0.00 89 1015.4
20260510024503 65 90 1.0 2.0 0.00 0.00 0.00 89 1015.4
20260510024004 65 90 0.0 2.0 0.00 0.00 0.00 89 1015.3
20260510023503 65 90 0.0 2.0 0.00 0.00 0.00 89 1015.2
20260510023004 65 90 0.0 1.0 0.00 0.00 0.00 89 1015.0
20260510022003 66 90 0.0 2.0 0.00 0.00 0.00 89 1014.8
20260510021504 66 90 0.0 1.0 0.00 0.00 0.00 89 1014.8
20260510020503 66 90 1.0 3.0 0.00 0.00 0.00 89 1014.7
20260510020005 66 90 1.0 3.0 0.00 0.00 0.00 89 1014.6
20260510015504 66 90 2.0 3.0 0.00 0.00 0.00 89 1014.5
20260510015003 67 90 2.0 3.0 0.00 0.00 0.00 89 1014.3
20260510014504 67 90 2.0 4.0 0.00 0.00 0.00 89 1014.2
20260510014004 67 97 2.0 5.0 0.00 0.00 0.00 88 1014.1
20260510013005 67 94 3.0 6.0 0.00 0.00 0.00 88 1014.0
20260510012503 67 45 2.0 5.0 0.00 0.00 0.00 88 1013.8
20260510012003 67 360 2.0 5.0 0.00 0.00 0.00 88 1013.8
20260510011504 67 36 2.0 5.0 0.00 0.00 0.00 87 1013.8
20260510011003 67 355 2.0 5.0 0.00 0.00 0.00 87 1013.8
20260510010503 68 40 3.0 6.0 0.00 0.00 0.00 87 1013.6
20260510010005 68 42 3.0 6.0 0.00 0.00 0.00 87 1013.6
20260510005503 68 26 3.0 6.0 0.00 0.00 0.00 87 1013.5
20260510005003 68 28 4.0 9.0 0.00 0.00 0.00 86 1013.4
20260510004504 68 24 4.0 9.0 0.00 0.00 0.00 86 1013.5
20260510004004 68 13 4.0 8.0 0.00 0.00 0.00 86 1013.4
20260510003504 68 360 4.0 8.0 0.00 0.00 0.00 86 1013.6
20260510003004 68 327 4.0 9.0 0.00 0.00 0.00 85 1013.5
20260510002503 69 30 4.0 9.0 0.00 0.00 0.00 85 1013.4
20260510002003 69 30 4.0 8.0 0.00 0.00 0.00 85 1013.3
20260510001503 69 18 4.0 9.0 0.00 0.00 0.00 84 1013.4
20260510001003 69 355 4.0 9.0 0.00 0.00 0.00 84 1013.3
20260510000504 69 22 3.0 5.0 0.00 0.00 0.00 83 1013.2
20260510000006 69 27 2.0 5.0 0.00 0.00 0.00 83 1013.1
20260509235503 69 40 3.0 5.0 0.00 0.00 0.00 82 1012.9
20260509234503 70 25 3.0 5.0 0.00 0.00 0.00 81 1012.9
20260509233503 70 55 3.0 5.0 0.00 0.00 0.00 81 1012.7
20260509233003 70 41 3.0 5.0 0.00 0.00 0.00 81 1012.7
20260509232004 71 30 2.0 5.0 0.00 0.00 0.00 80 1012.8
20260509231504 71 17 2.0 5.0 0.00 0.00 0.00 80 1012.9
20260509230503 72 360 2.0 4.0 0.00 0.00 0.00 80 1012.7
20260509230005 72 13 2.0 4.0 0.00 0.00 0.00 79 1012.7